Weather History for Fryeburg, ME

Change the Weather History Date:

Thursday, November 28, 2013

  Actual Average Record
Temperature  
Mean Temperature 28 °F -  
Max Temperature 36 °F 39 °F 55 °F (2011)
Min Temperature 19 °F 21 °F -2 °F (1996)
Degree Days  
Heating Degree Days 38    
Moisture  
Dew Point 10 °F    
Average Humidity 51    
Maximum Humidity 67    
Minimum Humidity 36    
Precipitation  
Precipitation 0.00 in - - ()
Sea Level Pressure  
Sea Level Pressure 29.94 in    
Wind  
Wind Speed 12 mph (WNW)    
Max Wind Speed 17 mph    
Max Gust Speed 31 mph    
Visibility 10 miles    
Events      
Averages and records for this station are not official NWS values.
T = Trace of Precipitation, MM = Missing Value Source: NWS Daily Summary

Daily Weather History Graph

Daily Weather History Graph

Search for Another Location

Airport:

Trip Planner

Search our weather history database for the weather conditions in past years. The results will help you decide how hot, cold, wet, or windy it might be!

Date:

Astronomy

Nov. 28, 2013 Rise Set
Actual Time 6:55 AM EST 4:08 PM EST
Civil Twilight 6:23 AM EST 4:40 PM EST
Nautical Twilight 5:47 AM EST 5:16 PM EST
Astronomical Twilight 5:12 AM EST 5:50 PM EST
Moon 1:45 AM EST (11/28) 1:24 PM EST (11/28)
Length of Visible Light 10h 17m
Length of Day
9h 12m
Waning Crescent, 22% of the Moon is Illuminated
Nov 28
Waning Crescent
Dec 2
New
Dec 9
First Quarter
Dec 17
Full
Dec 25
Last Quarter

Hourly Weather History & Observations

Time (EST) Temp. Windchill Dew Point Humidity Pressure Visibility Wind Dir Wind Speed Gust Speed Precip Events Conditions
12:54 AM 36.0 °F 27.1 °F 26.1 °F 67% 29.37 in 10.0 mi WNW 13.8 mph 20.7 mph N/A   Mostly Cloudy
1:54 AM 35.1 °F 27.4 °F 25.0 °F 67% 29.41 in 10.0 mi West 10.4 mph 26.5 mph N/A   Overcast
2:54 AM 35.1 °F 25.2 °F 21.9 °F 59% 29.47 in 10.0 mi West 16.1 mph 29.9 mph N/A   Overcast
3:54 AM 33.1 °F 22.2 °F 18.0 °F 54% 29.51 in 10.0 mi West 17.3 mph 28.8 mph N/A   Overcast
4:54 AM 30.0 °F 20.0 °F 18.0 °F 61% 29.58 in 10.0 mi WNW 12.7 mph 21.9 mph N/A   Partly Cloudy
5:54 AM 28.0 °F 20.8 °F 17.1 °F 63% 29.68 in 10.0 mi Variable 6.9 mph 18.4 mph N/A   Mostly Cloudy
6:12 AM 27.0 °F 18.0 °F 16.0 °F 63% 29.67 in 10.0 mi WNW 9.2 mph 18.4 mph N/A   Mostly Cloudy
6:54 AM 26.1 °F 16.8 °F 16.0 °F 66% 29.74 in 10.0 mi WNW 9.2 mph 16.1 mph N/A   Mostly Cloudy
7:11 AM 26.1 °F 16.2 °F 15.1 °F 63% 29.74 in 10.0 mi West 10.4 mph - N/A   Scattered Clouds
7:54 AM 27.0 °F 18.7 °F 14.0 °F 58% 29.80 in 10.0 mi West 8.1 mph 18.4 mph N/A   Clear
8:26 AM 27.0 °F 18.0 °F 12.9 °F 56% 29.82 in 10.0 mi West 9.2 mph 20.7 mph N/A   Mostly Cloudy
8:45 AM 28.0 °F 18.6 °F 12.9 °F 53% 29.83 in 10.0 mi West 10.4 mph 23.0 mph N/A   Scattered Clouds
8:54 AM 28.0 °F 17.5 °F 12.0 °F 51% 29.86 in 10.0 mi West 12.7 mph 28.8 mph N/A   Partly Cloudy
9:54 AM 27.0 °F 15.6 °F 10.0 °F 49% 29.93 in 10.0 mi West 13.8 mph 31.1 mph N/A   Clear
10:54 AM 27.0 °F 14.7 °F 9.0 °F 47% 29.98 in 10.0 mi WNW 16.1 mph 24.2 mph N/A   Clear
11:54 AM 25.0 °F 13.6 °F 5.0 °F 43% 30.02 in 10.0 mi NW 12.7 mph 19.6 mph N/A   Clear
12:54 PM 27.0 °F 15.2 °F 3.9 °F 37% 30.05 in 10.0 mi NW 15.0 mph 25.3 mph N/A   Clear
1:54 PM 27.0 °F 17.3 °F 3.9 °F 37% 30.07 in 10.0 mi NW 10.4 mph 20.7 mph N/A   Clear
2:54 PM 27.0 °F 15.6 °F 3.0 °F 36% 30.12 in 10.0 mi WNW 13.8 mph 20.7 mph N/A   Clear
3:54 PM 25.0 °F 13.1 °F 1.9 °F 37% 30.17 in 10.0 mi WNW 13.8 mph 21.9 mph N/A   Clear
4:54 PM 24.1 °F 15.2 °F 3.9 °F 42% 30.21 in 10.0 mi West 8.1 mph - N/A   Clear
5:54 PM 23.0 °F 14.7 °F 3.9 °F 44% 30.25 in 10.0 mi WNW 6.9 mph - N/A   Clear
6:54 PM 21.9 °F 10.4 °F 3.0 °F 44% 30.28 in 10.0 mi West 11.5 mph 16.1 mph N/A   Clear
7:54 PM 21.9 °F 11.7 °F 3.0 °F 44% 30.30 in 10.0 mi West 9.2 mph 20.7 mph N/A   Clear
8:54 PM 21.0 °F 9.3 °F 3.9 °F 48% 30.34 in 10.0 mi West 11.5 mph 20.7 mph N/A   Clear
9:54 PM 19.9 °F 10.1 °F 3.9 °F 50% 30.36 in 10.0 mi West 8.1 mph - N/A   Clear
10:54 PM 19.9 °F 11.1 °F 3.9 °F 50% 30.38 in 10.0 mi Variable 6.9 mph 20.7 mph N/A   Clear
11:54 PM 19.0 °F 9.0 °F 3.0 °F 50% 30.39 in 10.0 mi West 8.1 mph - N/A   Mostly Cloudy